^^

..:: Storico WU ::..




Lo storico viene creato da WUnderground con i dati che la stazione Meteomincio invia al loro server. L' aggiornamento viene fatto ogni 5 minuti circa, tuttavia possono esserci intervalli pi ampi a causa di errori, interruzioni di servizio o problemi nell' invio tramite FTP.


Storico stazione MeteoMincio
Giorno Sommario per Settembre 22, 2021 Unità:  Inglese    Metrico   Entrambi
Giorno Settimana Mese Anno
  Max: Min: Media:
Temperatura: 75.2 °F 57.2 °F 66 °F
Dew Point: 59 °F 53.6 °F 56.5 °F
Umidità: 87% 54% 73%
Velocità vento: 9.3mph 1.2mph 3.9mph
Raffica: 13mph - -
Direzione- - East
Pressione: 30.3 in 30.1 in -
Precipitazioni: 0 in    
 
 
Tabulato Dati per Settembre 22, 2021
Ora Temperatura Dew Point Pressione Direzione Velocità vento Raffica Umidità Intensità pioggia (oraria) Info solare Situazione
00:04 60.8 °F 55.4 °F 30.2 in ENE 3.7 mph 5 mph 82% 0 in 0.00 W/m2 unknown
00:09 60.8 °F 55.4 °F 30.2 in ENE 3.7 mph 5 mph 82% 0 in 0.00 W/m2 unknown
00:14 60.8 °F 55.4 °F 30.2 in East 3.1 mph 5 mph 82% 0 in 0.00 W/m2 unknown
00:19 60.8 °F 55.4 °F 30.2 in East 3.7 mph 5 mph 82% 0 in 0.00 W/m2 unknown
00:24 60.8 °F 53.6 °F 30.2 in East 4.3 mph 6.2 mph 83% 0 in 0.00 W/m2 unknown
00:29 59 °F 53.6 °F 30.2 in East 3.1 mph 6.2 mph 83% 0 in 0.00 W/m2 unknown
00:34 59 °F 53.6 °F 30.2 in East 5 mph 6.2 mph 83% 0 in 0.00 W/m2 unknown
00:39 59 °F 53.6 °F 30.2 in East 5 mph 6.2 mph 83% 0 in 0.00 W/m2 unknown
00:44 59 °F 53.6 °F 30.3 in NE 3.7 mph 6.2 mph 83% 0 in 0.00 W/m2 unknown
00:49 59 °F 53.6 °F 30.3 in NE 3.7 mph 5 mph 83% 0 in 0.00 W/m2 unknown
00:54 59 °F 53.6 °F 30.3 in NE 3.7 mph 5 mph 83% 0 in 0.00 W/m2 unknown
00:59 59 °F 53.6 °F 30.3 in NE 3.7 mph 5 mph 84% 0 in 0.00 W/m2 unknown
01:04 59 °F 53.6 °F 30.3 in ENE 2.5 mph 3.7 mph 84% 0 in 0.00 W/m2 unknown
01:09 59 °F 53.6 °F 30.3 in ENE 2.5 mph 3.7 mph 84% 0 in 0.00 W/m2 unknown
01:14 59 °F 53.6 °F 30.3 in NE 2.5 mph 3.7 mph 84% 0 in 0.00 W/m2 unknown
01:19 59 °F 53.6 °F 30.3 in NE 3.1 mph 3.7 mph 84% 0 in 0.00 W/m2 unknown
01:24 59 °F 53.6 °F 30.3 in ENE 3.1 mph 3.7 mph 84% 0 in 0.00 W/m2 unknown
01:29 59 °F 53.6 °F 30.3 in ENE 3.1 mph 3.7 mph 84% 0 in 0.00 W/m2 unknown
01:34 59 °F 53.6 °F 30.3 in ENE 2.5 mph 3.7 mph 84% 0 in 0.00 W/m2 unknown
01:39 59 °F 53.6 °F 30.3 in East 2.5 mph 3.7 mph 84% 0 in 0.00 W/m2 unknown
01:44 59 °F 53.6 °F 30.3 in ENE 2.5 mph 3.7 mph 84% 0 in 0.00 W/m2 unknown
01:49 59 °F 53.6 °F 30.3 in East 3.1 mph 3.7 mph 84% 0 in 0.00 W/m2 unknown
01:54 59 °F 53.6 °F 30.3 in East 2.5 mph 3.7 mph 84% 0 in 0.00 W/m2 unknown
01:59 59 °F 53.6 °F 30.3 in ENE 2.5 mph 3.7 mph 84% 0 in 0.00 W/m2 unknown
02:04 59 °F 53.6 °F 30.3 in ENE 3.1 mph 3.7 mph 85% 0 in 0.00 W/m2 unknown
02:09 59 °F 53.6 °F 30.3 in ENE 3.1 mph 3.7 mph 85% 0 in 0.00 W/m2 unknown
02:14 59 °F 53.6 °F 30.2 in ENE 4.3 mph 5 mph 85% 0 in 0.00 W/m2 unknown
02:19 57.2 °F 53.6 °F 30.2 in ENE 4.3 mph 5 mph 85% 0 in 0.00 W/m2 unknown
02:24 57.2 °F 53.6 °F 30.2 in ENE 3.7 mph 6.2 mph 85% 0 in 0.00 W/m2 unknown
02:29 57.2 °F 53.6 °F 30.2 in ENE 3.1 mph 6.2 mph 85% 0 in 0.00 W/m2 unknown
02:34 57.2 °F 53.6 °F 30.2 in East 3.7 mph 6.2 mph 86% 0 in 0.00 W/m2 unknown
02:39 57.2 °F 53.6 °F 30.2 in ENE 5 mph 6.2 mph 86% 0 in 0.00 W/m2 unknown
02:44 57.2 °F 53.6 °F 30.2 in ENE 5 mph 6.2 mph 86% 0 in 0.00 W/m2 unknown
02:49 57.2 °F 53.6 °F 30.2 in ENE 3.7 mph 5 mph 86% 0 in 0.00 W/m2 unknown
02:54 57.2 °F 53.6 °F 30.2 in ENE 3.1 mph 5 mph 86% 0 in 0.00 W/m2 unknown
02:59 57.2 °F 53.6 °F 30.2 in ENE 3.7 mph 5 mph 86% 0 in 0.00 W/m2 unknown
03:04 57.2 °F 53.6 °F 30.2 in ENE 3.1 mph 5 mph 86% 0 in 0.00 W/m2 unknown
03:09 59 °F 53.6 °F 30.2 in ENE 3.1 mph 5 mph 86% 0 in 0.00 W/m2 unknown
03:14 59 °F 53.6 °F 30.2 in ENE 3.7 mph 6.2 mph 87% 0 in 0.00 W/m2 unknown
03:19 59 °F 55.4 °F 30.2 in ENE 3.1 mph 6.2 mph 87% 0 in 0.00 W/m2 unknown
03:24 59 °F 55.4 °F 30.2 in East 2.5 mph 6.2 mph 87% 0 in 0.00 W/m2 unknown
03:29 59 °F 55.4 °F 30.2 in ENE 2.5 mph 3.7 mph 87% 0 in 0.00 W/m2 unknown
03:34 59 °F 55.4 °F 30.2 in East 3.1 mph 5 mph 87% 0 in 0.00 W/m2 unknown
03:39 59 °F 55.4 °F 30.2 in East 3.1 mph 5 mph 87% 0 in 0.00 W/m2 unknown
03:44 59 °F 55.4 °F 30.2 in ENE 3.7 mph 5 mph 87% 0 in 0.00 W/m2 unknown
03:49 59 °F 55.4 °F 30.2 in ENE 4.3 mph 6.8 mph 87% 0 in 0.00 W/m2 unknown
03:54 59 °F 55.4 °F 30.2 in ENE 3.7 mph 6.8 mph 86% 0 in 0.00 W/m2 unknown
03:59 59 °F 55.4 °F 30.2 in East 3.7 mph 5 mph 86% 0 in 0.00 W/m2 unknown
04:04 59 °F 55.4 °F 30.2 in ENE 2.5 mph 5 mph 86% 0 in 0.00 W/m2 unknown
04:09 59 °F 55.4 °F 30.2 in ENE 2.5 mph 3.7 mph 86% 0 in 0.00 W/m2 unknown
04:14 59 °F 55.4 °F 30.2 in ENE 2.5 mph 3.7 mph 86% 0 in 0.00 W/m2 unknown
04:19 59 °F 55.4 °F 30.2 in ENE 1.9 mph 3.7 mph 86% 0 in 0.00 W/m2 unknown
04:24 59 °F 55.4 °F 30.2 in ENE 2.5 mph 3.7 mph 86% 0 in 0.00 W/m2 unknown
04:29 59 °F 55.4 °F 30.2 in ENE 3.7 mph 5 mph 86% 0 in 0.00 W/m2 unknown
04:34 59 °F 55.4 °F 30.2 in ENE 3.7 mph 5 mph 86% 0 in 0.00 W/m2 unknown
04:39 60.8 °F 55.4 °F 30.2 in ENE 3.7 mph 5 mph 86% 0 in 0.00 W/m2 unknown
04:44 60.8 °F 55.4 °F 30.2 in ENE 3.7 mph 5 mph 86% 0 in 0.00 W/m2 unknown
04:49 60.8 °F 55.4 °F 30.2 in ENE 2.5 mph 5 mph 86% 0 in 0.00 W/m2 unknown
04:54 60.8 °F 55.4 °F 30.2 in ENE 2.5 mph 3.7 mph 86% 0 in 0.00 W/m2 unknown
04:59 60.8 °F 55.4 °F 30.2 in East 1.9 mph 3.7 mph 86% 0 in 0.00 W/m2 unknown
05:04 60.8 °F 55.4 °F 30.2 in East 1.9 mph 3.1 mph 86% 0 in 0.00 W/m2 unknown
05:09 60.8 °F 55.4 °F 30.2 in East 1.2 mph 1.9 mph 86% 0 in 0.00 W/m2 unknown
05:14 60.8 °F 55.4 °F 30.2 in ENE 1.9 mph 3.7 mph 86% 0 in 0.00 W/m2 unknown
05:19 60.8 °F 55.4 °F 30.2 in ENE 2.5 mph 3.7 mph 85% 0 in 0.00 W/m2 unknown
05:24 60.8 °F 55.4 °F 30.2 in ESE 3.1 mph 3.7 mph 85% 0 in 0.00 W/m2 unknown
05:29 60.8 °F 55.4 °F 30.2 in ESE 3.1 mph 3.7 mph 85% 0 in 0.00 W/m2 unknown
05:34 60.8 °F 55.4 °F 30.2 in ESE 2.5 mph 3.7 mph 86% 0 in 0.00 W/m2 unknown
05:39 60.8 °F 55.4 °F 30.2 in East 2.5 mph 3.7 mph 86% 0 in 0.00 W/m2 unknown
05:44 60.8 °F 55.4 °F 30.2 in ENE 3.1 mph 3.7 mph 86% 0 in 0.00 W/m2 unknown
05:49 60.8 °F 55.4 °F 30.2 in ENE 3.1 mph 3.7 mph 86% 0 in 0.00 W/m2 unknown
05:54 60.8 °F 55.4 °F 30.2 in ENE 3.1 mph 4.3 mph 86% 0 in 0.00 W/m2 unknown
05:59 60.8 °F 55.4 °F 30.2 in NE 3.1 mph 5 mph 86% 0 in 0.00 W/m2 unknown
06:04 60.8 °F 55.4 °F 30.2 in NNE 3.7 mph 3.7 mph 86% 0 in 0.00 W/m2 unknown
06:09 60.8 °F 55.4 °F 30.2 in NNE 4.3 mph 5 mph 86% 0 in 0.00 W/m2 unknown
06:14 60.8 °F 55.4 °F 30.2 in NE 4.3 mph 6.2 mph 86% 0 in 0.00 W/m2 unknown
06:19 60.8 °F 55.4 °F 30.2 in NE 5 mph 6.8 mph 86% 0 in 0.00 W/m2 unknown
06:24 60.8 °F 55.4 °F 30.2 in NE 3.7 mph 6.8 mph 85% 0 in 0.00 W/m2 unknown
06:29 60.8 °F 55.4 °F 30.2 in NE 5.6 mph 6.8 mph 85% 0 in 0.00 W/m2 unknown
06:34 60.8 °F 55.4 °F 30.2 in ENE 5 mph 6.8 mph 85% 0 in 0.00 W/m2 unknown
06:39 60.8 °F 55.4 °F 30.2 in ENE 5.6 mph 6.8 mph 84% 0 in 0.00 W/m2 unknown
06:44 60.8 °F 55.4 °F 30.2 in ENE 5 mph 8.1 mph 84% 0 in 0.00 W/m2 unknown
06:49 60.8 °F 55.4 °F 30.2 in East 5.6 mph 8.1 mph 83% 0 in 0.00 W/m2 unknown
06:54 60.8 °F 55.4 °F 30.2 in ENE 5 mph 6.8 mph 83% 0 in 0.00 W/m2 unknown
06:59 60.8 °F 55.4 °F 30.2 in NE 5 mph 6.2 mph 83% 0 in 0.00 W/m2 unknown
07:04 60.8 °F 55.4 °F 30.2 in NE 3.1 mph 6.2 mph 83% 0 in 0.00 W/m2 unknown
07:09 60.8 °F 55.4 °F 30.2 in ENE 3.1 mph 3.7 mph 83% 0 in 0.00 W/m2 unknown
07:14 60.8 °F 55.4 °F 30.2 in ENE 3.1 mph 3.7 mph 83% 0 in 0.00 W/m2 unknown
07:19 60.8 °F 55.4 °F 30.2 in East 3.1 mph 5 mph 83% 0 in 0.00 W/m2 unknown
07:24 60.8 °F 55.4 °F 30.2 in East 2.5 mph 5 mph 83% 0 in 5.00 W/m2 unknown
07:29 60.8 °F 55.4 °F 30.2 in East 2.5 mph 5 mph 83% 0 in 9.00 W/m2 unknown
07:34 60.8 °F 55.4 °F 30.2 in East 1.9 mph 3.7 mph 84% 0 in 11.00 W/m2 unknown
07:39 60.8 °F 55.4 °F 30.2 in East 3.1 mph 3.7 mph 84% 0 in 14.00 W/m2 unknown
07:44 60.8 °F 55.4 °F 30.2 in East 3.7 mph 5 mph 84% 0 in 18.00 W/m2 unknown
07:49 60.8 °F 55.4 °F 30.2 in East 2.5 mph 4.3 mph 84% 0 in 23.00 W/m2 unknown
07:54 60.8 °F 55.4 °F 30.2 in ENE 3.1 mph 5 mph 84% 0 in 28.00 W/m2 unknown
07:59 60.8 °F 55.4 °F 30.2 in ENE 2.5 mph 3.7 mph 84% 0 in 28.00 W/m2 unknown
08:04 60.8 °F 55.4 °F 30.2 in ENE 2.5 mph 3.7 mph 84% 0 in 30.00 W/m2 unknown
08:09 60.8 °F 55.4 °F 30.2 in ESE 2.5 mph 3.7 mph 84% 0 in 46.00 W/m2 unknown
08:14 60.8 °F 55.4 °F 30.2 in SSE 3.1 mph 3.7 mph 84% 0 in 56.00 W/m2 unknown
08:19 60.8 °F 55.4 °F 30.2 in South 3.1 mph 3.7 mph 84% 0 in 62.00 W/m2 unknown
08:24 60.8 °F 55.4 °F 30.2 in SSE 2.5 mph 3.7 mph 84% 0 in 72.00 W/m2 unknown
08:29 60.8 °F 57.2 °F 30.2 in SSW 2.5 mph 3.7 mph 84% 0 in 81.00 W/m2 unknown
08:34 60.8 °F 57.2 °F 30.2 in ESE 3.1 mph 5 mph 84% 0 in 91.00 W/m2 unknown
08:39 60.8 °F 57.2 °F 30.2 in ESE 3.1 mph 5 mph 84% 0 in 98.00 W/m2 unknown
08:44 62.6 °F 57.2 °F 30.2 in South 2.5 mph 3.7 mph 84% 0 in 109.00 W/m2 unknown
08:49 62.6 °F 57.2 °F 30.2 in SE 1.9 mph 3.7 mph 83% 0 in 155.00 W/m2 unknown
08:54 62.6 °F 57.2 °F 30.2 in ESE 2.5 mph 3.7 mph 83% 0 in 146.00 W/m2 unknown
08:59 62.6 °F 57.2 °F 30.2 in SE 2.5 mph 3.7 mph 83% 0 in 213.00 W/m2 unknown
09:04 62.6 °F 57.2 °F 30.2 in ESE 1.9 mph 3.7 mph 82% 0 in 156.00 W/m2 unknown
09:09 62.6 °F 57.2 °F 30.2 in SE 1.2 mph 3.1 mph 81% 0 in 155.00 W/m2 unknown
09:14 62.6 °F 57.2 °F 30.2 in ESE 2.5 mph 3.7 mph 81% 0 in 195.00 W/m2 unknown
09:19 64.4 °F 57.2 °F 30.2 in SE 3.1 mph 3.7 mph 81% 0 in 288.00 W/m2 unknown
09:24 64.4 °F 57.2 °F 30.2 in SE 2.5 mph 3.7 mph 80% 0 in 304.00 W/m2 unknown
09:29 64.4 °F 57.2 °F 30.2 in ESE 2.5 mph 5 mph 80% 0 in 294.00 W/m2 unknown
09:34 64.4 °F 59 °F 30.2 in SE 2.5 mph 5 mph 79% 0 in 304.00 W/m2 unknown
09:39 64.4 °F 57.2 °F 30.2 in ESE 3.7 mph 5 mph 78% 0 in 292.00 W/m2 unknown
09:44 64.4 °F 57.2 °F 30.2 in ESE 5 mph 6.2 mph 77% 0 in 241.00 W/m2 unknown
09:49 66.2 °F 57.2 °F 30.2 in SE 3.1 mph 6.2 mph 76% 0 in 309.00 W/m2 unknown
09:54 66.2 °F 57.2 °F 30.2 in SE 2.5 mph 3.7 mph 76% 0 in 309.00 W/m2 unknown
09:59 66.2 °F 59 °F 30.2 in SE 3.7 mph 4.3 mph 76% 0 in 371.00 W/m2 unknown
10:04 66.2 °F 59 °F 30.2 in ESE 4.3 mph 6.2 mph 76% 0 in 371.00 W/m2 unknown
10:09 66.2 °F 59 °F 30.2 in ESE 5 mph 6.2 mph 75% 0 in 336.00 W/m2 unknown
10:14 66.2 °F 57.2 °F 30.2 in ESE 6.2 mph 8.1 mph 73% 0 in 373.00 W/m2 unknown
10:19 68 °F 57.2 °F 30.2 in ESE 6.8 mph 8.1 mph 72% 0 in 380.00 W/m2 unknown
10:24 68 °F 57.2 °F 30.2 in East 6.2 mph 8.1 mph 71% 0 in 401.00 W/m2 unknown
10:29 68 °F 57.2 °F 30.2 in East 5.6 mph 6.8 mph 70% 0 in 401.00 W/m2 unknown
10:34 68 °F 57.2 °F 30.2 in ESE 6.2 mph 6.8 mph 71% 0 in 308.00 W/m2 unknown
10:39 68 °F 59 °F 30.2 in East 4.3 mph 6.8 mph 71% 0 in 504.00 W/m2 unknown
10:44 68 °F 57.2 °F 30.2 in ESE 4.3 mph 6.8 mph 71% 0 in 471.00 W/m2 unknown
10:49 68 °F 57.2 °F 30.2 in SSE 3.7 mph 6.8 mph 69% 0 in 471.00 W/m2 unknown
10:54 68 °F 57.2 °F 30.2 in SE 2.5 mph 5 mph 70% 0 in 438.00 W/m2 unknown
10:59 68 °F 57.2 °F 30.2 in ESE 4.3 mph 6.2 mph 70% 0 in 642.00 W/m2 unknown
11:04 69.8 °F 57.2 °F 30.2 in SSE 4.3 mph 6.2 mph 69% 0 in 689.00 W/m2 unknown
11:09 69.8 °F 57.2 °F 30.2 in South 3.7 mph 6.2 mph 66% 0 in 394.00 W/m2 unknown
11:14 69.8 °F 57.2 °F 30.2 in SSE 4.3 mph 6.8 mph 66% 0 in 306.00 W/m2 unknown
11:19 69.8 °F 57.2 °F 30.2 in SE 5 mph 6.8 mph 66% 0 in 295.00 W/m2 unknown
11:24 69.8 °F 57.2 °F 30.2 in SSE 4.3 mph 6.2 mph 67% 0 in 374.00 W/m2 unknown
11:29 69.8 °F 57.2 °F 30.2 in SSE 3.1 mph 6.2 mph 67% 0 in 485.00 W/m2 unknown
11:34 69.8 °F 57.2 °F 30.2 in SE 3.1 mph 6.2 mph 67% 0 in 485.00 W/m2 unknown
11:39 69.8 °F 57.2 °F 30.2 in SE 4.3 mph 6.2 mph 66% 0 in 378.00 W/m2 unknown
11:44 69.8 °F 57.2 °F 30.2 in ESE 5 mph 6.8 mph 67% 0 in 496.00 W/m2 unknown
11:49 69.8 °F 59 °F 30.2 in ESE 6.2 mph 8.1 mph 67% 0 in 654.00 W/m2 unknown
11:54 69.8 °F 59 °F 30.2 in ESE 5 mph 8.1 mph 67% 0 in 631.00 W/m2 unknown
11:59 69.8 °F 57.2 °F 30.2 in ESE 5 mph 6.8 mph 65% 0 in 571.00 W/m2 unknown
12:04 69.8 °F 57.2 °F 30.2 in ESE 6.2 mph 8.1 mph 65% 0 in 636.00 W/m2 unknown
12:09 69.8 °F 57.2 °F 30.2 in ESE 6.8 mph 9.3 mph 63% 0 in 659.00 W/m2 unknown
12:14 71.6 °F 59 °F 30.2 in ESE 6.2 mph 9.3 mph 66% 0 in 677.00 W/m2 unknown
12:19 71.6 °F 59 °F 30.2 in ESE 7.5 mph 9.3 mph 65% 0 in 673.00 W/m2 unknown
12:24 71.6 °F 59 °F 30.2 in SSE 7.5 mph 11.8 mph 65% 0 in 679.00 W/m2 unknown
12:29 71.6 °F 57.2 °F 30.2 in South 6.2 mph 11.8 mph 61% 0 in 677.00 W/m2 unknown
12:34 71.6 °F 57.2 °F 30.2 in ESE 8.1 mph 11.8 mph 62% 0 in 679.00 W/m2 unknown
12:39 71.6 °F 57.2 °F 30.2 in East 6.8 mph 9.9 mph 61% 0 in 677.00 W/m2 unknown
12:44 71.6 °F 57.2 °F 30.2 in SE 3.7 mph 6.2 mph 61% 0 in 673.00 W/m2 unknown
12:49 71.6 °F 57.2 °F 30.2 in SSE 6.2 mph 8.1 mph 61% 0 in 680.00 W/m2 unknown
12:54 71.6 °F 59 °F 30.2 in South 7.5 mph 9.3 mph 61% 0 in 693.00 W/m2 unknown
12:59 73.4 °F 57.2 °F 30.2 in South 6.2 mph 8.7 mph 59% 0 in 696.00 W/m2 unknown
13:04 73.4 °F 57.2 °F 30.2 in SSE 6.2 mph 9.3 mph 59% 0 in 696.00 W/m2 unknown
13:09 73.4 °F 57.2 °F 30.2 in South 8.7 mph 10.6 mph 58% 0 in 698.00 W/m2 unknown
13:14 71.6 °F 57.2 °F 30.2 in South 9.3 mph 10.6 mph 58% 0 in 693.00 W/m2 unknown
13:19 71.6 °F 57.2 °F 30.2 in South 6.2 mph 10.6 mph 58% 0 in 698.00 W/m2 unknown
13:24 73.4 °F 57.2 °F 30.2 in ESE 6.8 mph 9.3 mph 58% 0 in 691.00 W/m2 unknown
13:29 73.4 °F 57.2 °F 30.2 in SE 6.2 mph 8.7 mph 58% 0 in 691.00 W/m2 unknown
13:34 73.4 °F 57.2 °F 30.2 in ESE 5.6 mph 8.1 mph 57% 0 in 686.00 W/m2 unknown
13:39 73.4 °F 57.2 °F 30.2 in South 5.6 mph 6.8 mph 57% 0 in 687.00 W/m2 unknown
13:44 73.4 °F 57.2 °F 30.2 in SSE 5.6 mph 8.1 mph 55% 0 in 682.00 W/m2 unknown
13:49 73.4 °F 55.4 °F 30.2 in SSW 3.7 mph 8.1 mph 54% 0 in 682.00 W/m2 unknown
13:54 73.4 °F 55.4 °F 30.2 in ESE 3.7 mph 6.8 mph 54% 0 in 682.00 W/m2 unknown
13:59 73.4 °F 57.2 °F 30.2 in SE 4.3 mph 5 mph 55% 0 in 680.00 W/m2 unknown
14:04 73.4 °F 57.2 °F 30.2 in ESE 4.3 mph 6.2 mph 55% 0 in 710.00 W/m2 unknown
14:09 75.2 °F 59 °F 30.2 in North 2.5 mph 6.2 mph 58% 0 in 728.00 W/m2 unknown
14:14 75.2 °F 59 °F 30.2 in ESE 5 mph 6.8 mph 57% 0 in 728.00 W/m2 unknown
14:19 75.2 °F 57.2 °F 30.2 in ESE 5 mph 6.8 mph 56% 0 in 710.00 W/m2 unknown
14:24 75.2 °F 57.2 °F 30.2 in SE 5 mph 6.8 mph 55% 0 in 731.00 W/m2 unknown
14:29 75.2 °F 57.2 °F 30.2 in SE 3.1 mph 6.8 mph 55% 0 in 731.00 W/m2 unknown
14:34 75.2 °F 57.2 °F 30.2 in ENE 3.1 mph 6.2 mph 54% 0 in 721.00 W/m2 unknown
14:39 75.2 °F 57.2 °F 30.2 in ESE 6.2 mph 9.3 mph 54% 0 in 689.00 W/m2 unknown
14:44 75.2 °F 57.2 °F 30.2 in ESE 6.2 mph 9.3 mph 54% 0 in 707.00 W/m2 unknown
14:49 75.2 °F 57.2 °F 30.2 in ESE 4.3 mph 6.8 mph 54% 0 in 624.00 W/m2 unknown
14:54 75.2 °F 57.2 °F 30.2 in East 5 mph 8.1 mph 56% 0 in 682.00 W/m2 unknown
14:59 75.2 °F 57.2 °F 30.2 in East 8.7 mph 13 mph 55% 0 in 696.00 W/m2 unknown
15:04 75.2 °F 57.2 °F 30.2 in East 8.7 mph 13 mph 56% 0 in 663.00 W/m2 unknown
15:09 75.2 °F 57.2 °F 30.2 in East 5 mph 13 mph 55% 0 in 670.00 W/m2 unknown
15:14 75.2 °F 57.2 °F 30.2 in ESE 5 mph 8.1 mph 55% 0 in 666.00 W/m2 unknown
15:19 75.2 °F 57.2 °F 30.2 in ESE 6.2 mph 9.3 mph 54% 0 in 661.00 W/m2 unknown
15:24 75.2 °F 59 °F 30.2 in East 6.2 mph 8.7 mph 55% 0 in 649.00 W/m2 unknown
15:29 75.2 °F 59 °F 30.2 in East 7.5 mph 9.3 mph 55% 0 in 613.00 W/m2 unknown
15:34 75.2 °F 59 °F 30.2 in ESE 5 mph 8.7 mph 56% 0 in 591.00 W/m2 unknown
15:39 75.2 °F 59 °F 30.2 in East 5.6 mph 6.8 mph 56% 0 in 570.00 W/m2 unknown
15:44 75.2 °F 57.2 °F 30.2 in ESE 5 mph 6.8 mph 55% 0 in 555.00 W/m2 unknown
15:49 75.2 °F 57.2 °F 30.2 in ESE 5 mph 8.1 mph 55% 0 in 529.00 W/m2 unknown
15:54 75.2 °F 57.2 °F 30.2 in ESE 6.8 mph 8.1 mph 55% 0 in 492.00 W/m2 unknown
15:59 75.2 °F 57.2 °F 30.2 in ESE 6.8 mph 9.3 mph 55% 0 in 499.00 W/m2 unknown
16:04 75.2 °F 59 °F 30.2 in ESE 5 mph 8.7 mph 56% 0 in 482.00 W/m2 unknown
16:09 75.2 °F 57.2 °F 30.2 in ESE 5 mph 6.8 mph 55% 0 in 445.00 W/m2 unknown
16:14 75.2 °F 59 °F 30.1 in ESE 7.5 mph 8.7 mph 56% 0 in 431.00 W/m2 unknown
16:19 75.2 °F 59 °F 30.1 in East 7.5 mph 9.3 mph 56% 0 in 425.00 W/m2 unknown
16:24 75.2 °F 57.2 °F 30.1 in East 6.8 mph 8.1 mph 55% 0 in 438.00 W/m2 unknown
16:29 75.2 °F 57.2 °F 30.1 in East 6.2 mph 8.1 mph 55% 0 in 439.00 W/m2 unknown
16:34 75.2 °F 57.2 °F 30.1 in ESE 5.6 mph 8.1 mph 55% 0 in 410.00 W/m2 unknown
16:39 75.2 °F 57.2 °F 30.1 in East 6.2 mph 8.1 mph 55% 0 in 338.00 W/m2 unknown
16:44 75.2 °F 57.2 °F 30.1 in East 6.2 mph 8.1 mph 55% 0 in 338.00 W/m2 unknown
16:49 75.2 °F 57.2 °F 30.1 in East 6.2 mph 8.1 mph 55% 0 in 315.00 W/m2 unknown
16:54 75.2 °F 59 °F 30.1 in East 3.7 mph 8.1 mph 57% 0 in 315.00 W/m2 unknown
16:59 75.2 °F 59 °F 30.1 in ENE 5 mph 6.8 mph 57% 0 in 302.00 W/m2 unknown
17:04 75.2 °F 57.2 °F 30.1 in ENE 5.6 mph 6.8 mph 56% 0 in 304.00 W/m2 unknown
17:09 73.4 °F 57.2 °F 30.1 in East 6.8 mph 9.3 mph 56% 0 in 302.00 W/m2 unknown
17:14 73.4 °F 57.2 °F 30.1 in East 6.2 mph 9.3 mph 57% 0 in 271.00 W/m2 unknown
17:19 73.4 °F 57.2 °F 30.1 in East 7.5 mph 9.3 mph 57% 0 in 281.00 W/m2 unknown
17:24 73.4 °F 57.2 °F 30.1 in East 5 mph 8.7 mph 56% 0 in 285.00 W/m2 unknown
17:29 73.4 °F 57.2 °F 30.1 in ENE 6.2 mph 8.1 mph 56% 0 in 271.00 W/m2 unknown
17:34 73.4 °F 57.2 °F 30.1 in ENE 5 mph 8.1 mph 56% 0 in 271.00 W/m2 unknown
17:39 73.4 °F 57.2 °F 30.1 in ENE 5.6 mph 8.1 mph 55% 0 in 241.00 W/m2 unknown
17:44 73.4 °F 57.2 °F 30.1 in ENE 5 mph 8.1 mph 56% 0 in 230.00 W/m2 unknown
17:49 73.4 °F 57.2 °F 30.1 in ENE 3.7 mph 6.8 mph 56% 0 in 214.00 W/m2 unknown
17:54 73.4 °F 57.2 °F 30.1 in East 4.3 mph 6.8 mph 57% 0 in 183.00 W/m2 unknown
17:59 73.4 °F 57.2 °F 30.1 in East 3.1 mph 6.8 mph 58% 0 in 171.00 W/m2 unknown
18:04 73.4 °F 57.2 °F 30.1 in East 3.1 mph 6.2 mph 58% 0 in 165.00 W/m2 unknown
18:09 73.4 °F 59 °F 30.1 in East 3.1 mph 5 mph 60% 0 in 151.00 W/m2 unknown
18:14 73.4 °F 59 °F 30.1 in East 2.5 mph 3.7 mph 60% 0 in 135.00 W/m2 unknown
18:19 73.4 °F 59 °F 30.1 in East 3.1 mph 5 mph 61% 0 in 118.00 W/m2 unknown
18:24 73.4 °F 59 °F 30.1 in ESE 3.1 mph 5 mph 61% 0 in 100.00 W/m2 unknown
18:29 73.4 °F 59 °F 30.1 in East 1.9 mph 5 mph 62% 0 in 46.00 W/m2 unknown
18:34 71.6 °F 59 °F 30.1 in East 3.7 mph 5 mph 62% 0 in 42.00 W/m2 unknown
18:39 71.6 °F 59 °F 30.1 in ENE 3.7 mph 5 mph 62% 0 in 54.00 W/m2 unknown
18:44 71.6 °F 59 °F 30.1 in ENE 3.1 mph 5 mph 62% 0 in 49.00 W/m2 unknown
18:49 71.6 °F 59 °F 30.1 in ENE 3.7 mph 6.2 mph 62% 0 in 40.00 W/m2 unknown
18:54 71.6 °F 59 °F 30.1 in East 3.7 mph 6.2 mph 63% 0 in 30.00 W/m2 unknown
18:59 71.6 °F 59 °F 30.1 in East 3.1 mph 5 mph 63% 0 in 18.00 W/m2 unknown
19:04 71.6 °F 59 °F 30.1 in East 3.7 mph 6.2 mph 63% 0 in 12.00 W/m2 unknown
19:09 71.6 °F 59 °F 30.1 in East 3.1 mph 6.2 mph 64% 0 in 9.00 W/m2 unknown
19:14 71.6 °F 57.2 °F 30.1 in ENE 3.1 mph 5 mph 64% 0 in 5.00 W/m2 unknown
19:19 69.8 °F 57.2 °F 30.1 in ENE 3.1 mph 5 mph 65% 0 in 0.00 W/m2 unknown
19:24 69.8 °F 57.2 °F 30.1 in ENE 3.1 mph 5 mph 65% 0 in 0.00 W/m2 unknown
19:29 69.8 °F 57.2 °F 30.1 in East 2.5 mph 5 mph 66% 0 in 0.00 W/m2 unknown
19:34 69.8 °F 57.2 °F 30.1 in East 3.1 mph 5 mph 66% 0 in 0.00 W/m2 unknown
19:39 69.8 °F 57.2 °F 30.1 in ESE 2.5 mph 5 mph 66% 0 in 0.00 W/m2 unknown
19:44 68 °F 57.2 °F 30.1 in SE 1.9 mph 3.7 mph 67% 0 in 0.00 W/m2 unknown
19:49 68 °F 57.2 °F 30.1 in East 1.9 mph 3.7 mph 67% 0 in 0.00 W/m2 unknown
19:54 68 °F 57.2 °F 30.2 in East 1.9 mph 3.1 mph 68% 0 in 0.00 W/m2 unknown
19:59 68 °F 57.2 °F 30.1 in East 1.9 mph 2.5 mph 68% 0 in 0.00 W/m2 unknown
20:04 68 °F 57.2 °F 30.1 in ESE 2.5 mph 3.7 mph 69% 0 in 0.00 W/m2 unknown
20:09 68 °F 57.2 °F 30.2 in ESE 2.5 mph 3.7 mph 69% 0 in 0.00 W/m2 unknown
20:14 68 °F 57.2 °F 30.2 in East 2.5 mph 3.7 mph 69% 0 in 0.00 W/m2 unknown
20:19 68 °F 57.2 °F 30.2 in East 3.1 mph 5 mph 70% 0 in 0.00 W/m2 unknown
20:24 66.2 °F 57.2 °F 30.2 in East 3.1 mph 5 mph 70% 0 in 0.00 W/m2 unknown
20:29 66.2 °F 57.2 °F 30.2 in East 4.3 mph 5 mph 70% 0 in 0.00 W/m2 unknown
20:34 66.2 °F 57.2 °F 30.2 in ENE 3.7 mph 5 mph 70% 0 in 0.00 W/m2 unknown
20:39 66.2 °F 57.2 °F 30.2 in ENE 3.1 mph 5 mph 71% 0 in 0.00 W/m2 unknown
20:44 66.2 °F 57.2 °F 30.2 in East 3.1 mph 5 mph 71% 0 in 0.00 W/m2 unknown
20:49 66.2 °F 57.2 °F 30.2 in East 2.5 mph 3.7 mph 72% 0 in 0.00 W/m2 unknown
20:54 66.2 °F 57.2 °F 30.2 in East 1.9 mph 3.7 mph 72% 0 in 0.00 W/m2 unknown
20:59 66.2 °F 57.2 °F 30.2 in ENE 1.9 mph 3.7 mph 72% 0 in 0.00 W/m2 unknown
21:04 66.2 °F 57.2 °F 30.2 in ENE 1.9 mph 3.1 mph 72% 0 in 0.00 W/m2 unknown
21:09 66.2 °F 57.2 °F 30.2 in ENE 1.9 mph 2.5 mph 73% 0 in 0.00 W/m2 unknown
21:14 66.2 °F 57.2 °F 30.2 in ENE 1.2 mph 2.5 mph 73% 0 in 0.00 W/m2 unknown
21:19 66.2 °F 57.2 °F 30.2 in East 2.5 mph 3.7 mph 74% 0 in 0.00 W/m2 unknown
21:24 66.2 °F 57.2 °F 30.2 in ESE 2.5 mph 3.7 mph 74% 0 in 0.00 W/m2 unknown
21:29 64.4 °F 57.2 °F 30.2 in ESE 3.1 mph 5 mph 74% 0 in 0.00 W/m2 unknown
21:34 64.4 °F 57.2 °F 30.2 in East 3.1 mph 5 mph 75% 0 in 0.00 W/m2 unknown
21:39 64.4 °F 57.2 °F 30.2 in East 4.3 mph 6.2 mph 75% 0 in 0.00 W/m2 unknown
21:44 64.4 °F 57.2 °F 30.2 in ENE 3.7 mph 6.2 mph 76% 0 in 0.00 W/m2 unknown
21:49 64.4 °F 57.2 °F 30.2 in ENE 3.1 mph 5 mph 76% 0 in 0.00 W/m2 unknown
21:54 64.4 °F 57.2 °F 30.2 in East 1.9 mph 3.7 mph 77% 0 in 0.00 W/m2 unknown
21:59 64.4 °F 57.2 °F 30.2 in East 1.9 mph 3.1 mph 77% 0 in 0.00 W/m2 unknown
22:04 64.4 °F 57.2 °F 30.2 in East 2.5 mph 5 mph 77% 0 in 0.00 W/m2 unknown
22:09 64.4 °F 57.2 °F 30.2 in ESE 3.1 mph 5 mph 77% 0 in 0.00 W/m2 unknown
22:14 64.4 °F 57.2 °F 30.2 in ESE 2.5 mph 5 mph 78% 0 in 0.00 W/m2 unknown
22:19 64.4 °F 57.2 °F 30.2 in East 2.5 mph 3.7 mph 78% 0 in 0.00 W/m2 unknown
22:24 64.4 °F 57.2 °F 30.2 in East 1.9 mph 3.7 mph 78% 0 in 0.00 W/m2 unknown
22:29 64.4 °F 57.2 °F 30.2 in ENE 2.5 mph 3.7 mph 79% 0 in 0.00 W/m2 unknown
22:34 64.4 °F 57.2 °F 30.2 in ENE 3.1 mph 3.7 mph 79% 0 in 0.00 W/m2 unknown
22:39 64.4 °F 57.2 °F 30.2 in ENE 2.5 mph 3.7 mph 79% 0 in 0.00 W/m2 unknown
22:44 64.4 °F 57.2 °F 30.2 in NE 3.1 mph 3.7 mph 79% 0 in 0.00 W/m2 unknown
22:49 62.6 °F 57.2 °F 30.2 in NE 3.1 mph 3.7 mph 79% 0 in 0.00 W/m2 unknown
22:54 62.6 °F 57.2 °F 30.2 in NE 2.5 mph 3.7 mph 80% 0 in 0.00 W/m2 unknown
22:59 62.6 °F 57.2 °F 30.2 in NE 3.1 mph 3.7 mph 80% 0 in 0.00 W/m2 unknown
23:04 62.6 °F 57.2 °F 30.2 in NE 2.5 mph 3.7 mph 80% 0 in 0.00 W/m2 unknown
23:09 62.6 °F 57.2 °F 30.2 in NE 1.9 mph 3.7 mph 81% 0 in 0.00 W/m2 unknown
23:14 62.6 °F 57.2 °F 30.2 in NE 1.2 mph 3.1 mph 81% 0 in 0.00 W/m2 unknown
23:19 62.6 °F 57.2 °F 30.2 in ENE 2.5 mph 3.7 mph 81% 0 in 0.00 W/m2 unknown
23:24 62.6 °F 57.2 °F 30.2 in ENE 2.5 mph 3.7 mph 82% 0 in 0.00 W/m2 unknown
23:29 62.6 °F 57.2 °F 30.2 in NE 3.1 mph 3.7 mph 82% 0 in 0.00 W/m2 unknown
23:34 62.6 °F 57.2 °F 30.2 in ENE 2.5 mph 3.7 mph 82% 0 in 0.00 W/m2 unknown
23:39 62.6 °F 57.2 °F 30.2 in ENE 2.5 mph 3.7 mph 82% 0 in 0.00 W/m2 unknown
23:44 62.6 °F 55.4 °F 30.2 in ENE 2.5 mph 3.7 mph 82% 0 in 0.00 W/m2 unknown
23:49 60.8 °F 57.2 °F 30.2 in ENE 3.1 mph 3.7 mph 83% 0 in 0.00 W/m2 unknown
23:54 60.8 °F 55.4 °F 30.2 in ENE 2.5 mph 3.7 mph 83% 0 in 0.00 W/m2 unknown
23:59 60.8 °F 55.4 °F 30.2 in ENE 2.5 mph 3.7 mph 83% 0 in 0.00 W/m2 unknown
Stazione Meteorologica MeteoMincio Rivalta s/M (MN)
Con i complimenti di Weather Underground - 4 mb



METEO PILLOLE
Temperatura più alta in Italia
Floridia - Siracusa
L' 11 agosto 2021 alle 13:14 si registrano ben 48,8°C.
Share

Non seguire questo link o sarai bannato dal sito!